This is the latest recevied weather packets stored in our database for station/object OK1TOM-6. If no packets are shown the sender has not sent any weather packets the latest 10 day(s).
| Time | Temp. | Humidity | Pressure | Rain* | Wind** | Luminosity | Snow |
|---|---|---|---|---|---|---|---|
| 1777925151 | 15° C | 65% | 1015.2 hPa | 0 mm | - | - | - |
| 1777924547 | 14.44° C | 64% | 1015.2 hPa | 0 mm | - | - | - |
| 1777923943 | 14.44° C | 66% | 1015.2 hPa | 0 mm | - | - | - |
| 1777923340 | 14.44° C | 66% | 1015.3 hPa | 0 mm | - | - | - |
| 1777922736 | 15° C | 63% | 1015.3 hPa | 0 mm | - | - | - |
| 1777922133 | 15° C | 66% | 1015.4 hPa | 0 mm | - | - | - |
| 1777921529 | 15.56° C | 61% | 1015.3 hPa | 0 mm | - | - | - |
| 1777920926 | 15.56° C | 61% | 1015.3 hPa | 0 mm | - | - | - |
| 1777920323 | 16.11° C | 60% | 1015.2 hPa | 0 mm | - | - | - |
| 1777919719 | 16.11° C | 60% | 1015.1 hPa | 0 mm | - | - | - |
| 1777919116 | 16.67° C | 57% | 1015.1 hPa | 0 mm | - | - | - |
| 1777918573 | 16.67° C | 55% | 1015.1 hPa | 0 mm | - | - | - |
| 1777917969 | 17.22° C | 56% | 1015 hPa | 0 mm | - | - | - |
| 1777917366 | 17.78° C | 56% | 1015 hPa | 0 mm | - | - | - |
| 1777916762 | 17.78° C | 54% | 1015 hPa | 0 mm | - | - | - |
| 1777916159 | 18.33° C | 53% | 1014.9 hPa | 0 mm | - | - | - |
| 1777915556 | 18.89° C | 48% | 1014.9 hPa | 0 mm | - | - | - |
| 1777914952 | 19.44° C | 44% | 1014.9 hPa | 0 mm | - | - | - |
| 1777914349 | 20° C | 42% | 1015 hPa | 0 mm | - | - | - |
| 1777913746 | 20° C | 40% | 1015 hPa | 0 mm | - | - | - |
| 1777913142 | 20° C | 40% | 1015.1 hPa | 0 mm | - | - | - |
| 1777912539 | 20.56° C | 39% | 1015.2 hPa | 0 mm | - | - | - |
| 1777911935 | 20.56° C | 39% | 1015.3 hPa | 0 mm | - | - | - |
| 1777911332 | 20.56° C | 38% | 1015.3 hPa | 0 mm | - | - | - |
| 1777910728 | 21.11° C | 39% | 1015.3 hPa | 0 mm | - | - | - |
* Rain latest hour (hover to see other rain measurements)
** Current wind speed in m/s (hover to see current wind gust speed)